sat.trackr.live / text

‹ back to catalog

STARLINK-34011

NORAD 63845 · 2025-093K

PAYLOAD ACTIVE UNKNOWN

§ Identity

Operator
Country
US
Launch date
2025-05-07
Launch site
AFETR
Launch vehicle
Mass (kg)
RCS (m²)

Purposes: comms

External: N2YO · Heavens-Above · Gunter

§ Orbital elements

Epoch: 2026-05-25T00:50:57.092064Z

Period
94.26 min
Inclination
42.9995°
Eccentricity
0.0001124
Mean motion
15.27625040 rev/d
Perigee alt
482.1 km
Apogee alt
483.7 km
Semi-major
6,861.1 km
B*
1.2003e-3
RAAN
7.1477°
Arg perigee
274.6289°
Mean anomaly
85.4434°
Rev number
5,942

§ Raw data

STARLINK-340111 63845U 25093K   26145.03538301  .00032960  00000+0  12003-2 0  99932 63845  42.9995   7.1477 0001124 274.6289  85.4434 15.27625040 59428

JSON: /api/v1/satellites/63845 · /tle

For live sub-satellite position, see the globe view (requires WebGL).

§ Visibility from observer

Set your observer location to see the next 7 days of passes ≥ 10°. The values pass through the URL so the page stays shareable.

No JS? Fill the form by hand. The geolocation button needs JavaScript.